Wind_Speed
22 21 20 20 20 21 21 20 20 19 18 18 18 19 19 18 18 18 18 17 16 17 18 18 18 19 20 20 20 21 20 20 19 19 19 20 20 20 21 21 21 21 22 22
23 22 21 21 21 21 21 21 21 20 20 19 20 20 20 19 19 18 19 18 18 18 19 19 18 19 19 20 21 22 21 21 21 21 20 21 22 22 22 22 22 22 23 24
22 22 23 22 21 22 21 21 21 22 20 20 20 20 20 20 21 21 21 21 21 19 20 19 19 20 20 21 22 22 22 22 22 22 23 23 23 23 23 23 23 24 24 25
23 23 25 22 21 22 22 22 22 21 21 21 21 20 20 20 21 22 22 22 22 21 21 21 20 21 21 21 22 23 23 23 24 24 23 24 24 24 24 25 25 25 25 26
23 24 25 23 22 22 23 23 23 22 21 21 21 21 20 21 22 22 22 21 21 21 21 21 21 21 22 23 24 24 24 24 25 25 24 25 26 26 26 26 26 26 27 26
24 24 24 23 23 23 24 23 22 22 21 21 22 22 21 22 22 22 22 21 21 21 22 22 22 22 23 23 24 24 24 25 25 26 26 26 26 27 27 27 27 27 27 27
26 26 25 23 23 24 24 23 22 21 21 22 22 22 22 22 23 22 22 22 22 22 22 22 23 23 23 23 25 25 25 26 26 27 27 27 28 27 27 27 27 27 27 27
26 27 26 25 25 25 24 23 22 21 21 22 22 23 23 23 23 23 23 23 24 24 23 23 24 24 24 25 26 26 26 26 27 28 28 28 28 28 27 27 27 28 27 27
27 27 26 26 26 25 24 23 22 22 21 22 23 23 24 24 24 24 24 25 25 25 25 25 25 25 25 26 27 28 27 27 28 28 29 29 29 28 28 28 28 28 28 28
27 27 27 26 25 25 25 24 24 23 23 23 23 24 25 24 24 24 24 25 26 26 25 25 26 26 27 28 29 29 28 29 29 30 29 29 29 29 28 29 29 29 29 29
27 26 26 26 26 26 26 26 25 24 24 24 24 25 25 25 24 24 25 25 26 26 26 26 26 27 27 28 29 30 30 30 30 30 29 29 29 29 29 30 30 31 30 30
27 26 27 26 25 26 26 25 26 25 24 24 24 24 24 25 25 25 25 25 26 27 27 27 27 27 28 29 30 30 31 30 30 29 29 29 29 30 30 30 31 31 31 31
27 27 26 26 25 26 26 26 25 25 25 24 24 24 24 25 25 26 26 26 26 26 26 27 27 28 29 30 31 31 31 31 31 31 31 31 30 31 31 31 31 32 32 31
26 27 27 26 26 26 25 25 25 26 26 25 24 24 24 24 25 25 25 25 25 26 26 27 28 29 30 31 31 31 31 31 32 32 32 31 32 32 32 31 31 31 32 31
26 26 27 26 26 25 25 24 25 26 25 24 24 24 24 25 25 24 24 25 25 26 27 28 29 30 31 31 31 31 32 32 32 32 31 31 32 32 32 32 31 31 31 30
27 27 27 26 25 25 24 24 24 24 23 24 24 24 24 24 24 24 24 25 26 27 28 29 29 30 30 31 31 31 31 32 32 31 31 31 32 32 32 31 30 30 29 29
26 26 26 25 25 25 24 24 24 24 24 24 24 23 24 24 24 24 25 26 27 28 28 29 30 30 31 31 31 30 31 31 31 31 31 31 31 31 30 30 30 29 29 29
26 25 26 25 24 24 25 25 24 24 24 23 24 24 24 24 25 25 25 26 27 28 29 29 29 30 31 31 30 30 30 29 29 29 29 30 30 29 29 28 28 28 28 28
25 25 25 25 25 25 24 24 25 25 25 25 24 24 24 25 25 25 27 28 29 29 29 29 29 30 29 29 29 29 28 28 28 28 28 28 27 27 27 27 27 27 27 28
24 24 25 25 25 26 26 26 26 26 26 25 25 24 25 26 26 26 27 28 28 29 29 29 30 29 28 28 28 28 28 28 28 29 28 28 28 28 27 27 27 27 27 27
23 24 24 25 25 26 26 26 26 26 26 25 25 25 26 26 27 28 28 27 28 28 28 29 29 28 28 28 27 27 27 28 29 29 28 28 28 27 26 26 26 26 26 26
24 24 24 24 25 25 25 25 26 26 26 25 25 25 26 26 27 27 27 27 27 28 28 28 28 28 27 27 27 27 27 27 27 27 27 27 27 27 26 26 26 26 26 26
24 24 24 24 25 25 25 25 25 26 26 26 26 25 26 26 26 26 26 27 27 28 28 27 27 27 26 27 27 26 26 26 26 27 27 27 26 26 26 26 26 25 25 25
24 24 24 24 25 25 25 25 25 25 26 26 25 25 26 26 26 26 27 28 28 28 28 27 27 27 27 27 27 26 26 26 26 26 26 26 26 26 25 25 26 26 26 26
24 24 24 24 24 25 25 26 26 26 25 25 25 26 26 26 26 26 27 27 27 27 27 27 27 27 27 26 26 26 26 26 26 26 26 26 26 26 25 26 26 26 25 26
24 24 23 23 24 24 25 25 26 26 26 26 25 26 26 26 26 26 26 26 27 27 27 27 27 27 26 26 26 26 26 26 26 26 25 25 25 25 25 25 25 24 24 24
22 22 22 22 23 24 24 25 25 26 26 26 26 26 26 26 26 26 26 26 26 26 26 26 26 25 25 26 26 26 26 25 24 24 24 24 25 25 24 24 25 24 24 23
Wind_Direction
256 256 255 259 262 266 268 271 273 276 280 283 282 285 287 289 292 294 297 300 301 301 302 303 304 306 308 310 311 313 313 313 312 310 309 307 307 306 304 301 300 300 298 297
254 256 257 259 263 265 267 269 272 275 277 281 279 281 283 286 290 291 292 294 294 295 297 299 302 303 305 307 308 310 311 311 309 307 306 305 305 306 306 305 303 302 300 300
256 257 258 259 265 268 268 269 272 274 276 279 280 279 281 283 287 289 288 289 291 292 292 295 298 300 302 304 306 309 310 309 307 306 304 305 305 305 306 306 305 305 304 302
257 257 258 263 264 267 267 268 271 273 275 274 275 276 279 282 285 288 287 288 288 289 293 293 294 298 301 303 305 307 308 308 307 305 304 305 307 307 305 304 303 303 304 303
258 260 263 264 265 268 268 269 272 273 274 272 272 275 278 282 284 285 288 287 287 289 292 293 294 296 300 303 304 305 305 304 305 306 307 307 306 306 305 303 302 302 301 301
260 262 263 266 268 269 271 272 274 274 274 273 274 275 278 281 283 284 285 286 287 289 291 293 295 296 299 302 304 305 306 306 307 307 307 306 305 305 303 302 302 303 303 302
260 262 265 268 270 272 273 276 276 276 275 276 278 278 279 282 284 284 283 284 288 291 293 294 296 298 299 302 305 307 307 307 306 306 306 305 304 303 302 302 303 304 303 302
259 262 265 268 271 271 274 275 276 276 276 277 279 280 282 283 282 283 283 284 287 290 292 293 293 295 297 301 305 306 307 307 306 305 305 304 304 303 303 303 303 303 303 301
260 264 266 266 268 270 272 273 275 277 277 280 280 279 280 280 280 282 283 284 286 289 292 293 294 295 298 301 303 305 306 306 306 305 304 303 303 303 302 302 302 302 302 301
261 264 265 265 267 268 269 270 272 275 278 280 278 279 279 279 280 281 284 286 287 289 292 295 297 298 299 300 302 304 305 305 304 303 303 302 301 301 301 301 301 301 301 302
262 264 265 266 267 268 268 268 270 274 274 275 276 278 279 278 279 282 286 288 290 292 292 295 297 298 299 300 301 303 304 304 303 302 302 300 300 300 301 301 301 301 301 301
261 262 264 265 266 266 266 267 269 271 270 271 273 276 278 280 282 284 286 289 291 293 294 295 296 296 298 300 302 303 304 304 303 301 301 301 300 300 300 300 300 300 300 300
261 261 264 266 267 267 266 267 268 268 269 271 274 276 278 281 282 284 286 290 293 294 294 295 295 296 298 300 302 303 303 303 302 301 300 300 300 301 300 299 300 300 301 299
262 263 265 267 267 266 265 265 265 266 268 271 273 277 279 281 282 285 287 290 292 293 294 295 296 298 299 301 302 303 303 303 302 300 299 300 300 301 300 300 300 300 301 300
261 264 265 266 263 263 264 264 264 266 268 270 274 277 280 281 282 284 287 289 292 295 296 297 298 300 302 302 303 303 303 302 301 300 299 301 301 301 301 300 301 301 302 301
261 262 263 264 264 262 263 264 264 266 269 272 275 278 279 281 282 283 286 290 293 296 297 299 301 302 304 303 303 304 304 303 302 301 300 301 301 301 300 300 300 301 301 301
259 260 261 263 263 263 264 265 266 269 272 273 275 277 279 282 282 283 285 289 292 295 297 299 301 303 303 303 303 304 304 304 303 302 301 301 302 301 300 299 299 299 300 300
259 259 260 261 262 262 264 265 266 268 270 273 276 278 281 282 282 283 286 290 293 295 297 299 300 302 303 303 302 303 303 303 303 303 302 302 302 303 303 302 301 301 301 301
256 256 258 259 260 262 264 264 267 269 271 273 277 277 278 282 285 286 288 291 294 296 298 300 301 302 302 303 303 303 304 304 304 305 305 305 305 305 304 303 302 301 301 301
256 257 260 262 262 264 266 268 269 271 271 272 275 278 280 283 286 288 290 293 295 297 298 300 303 304 301 301 301 303 304 306 306 307 307 307 306 305 305 304 303 304 303 302
257 258 260 261 262 263 265 266 267 269 270 273 276 279 281 284 287 289 291 292 295 297 299 302 304 305 304 303 302 303 304 306 307 308 308 307 307 306 305 304 304 306 306 305
258 257 259 261 263 264 265 266 268 270 272 275 278 280 282 285 288 290 291 292 295 298 299 302 304 305 305 304 303 303 305 307 308 309 310 309 309 308 307 306 305 306 307 307
259 258 259 261 263 263 264 266 268 272 275 277 278 280 282 285 288 290 292 293 296 298 300 302 303 304 304 304 304 305 306 308 309 309 309 309 310 310 309 307 306 306 307 308
258 258 260 262 263 262 263 266 269 272 275 277 277 279 282 285 287 289 291 293 296 299 300 300 302 303 303 304 305 305 306 308 308 309 309 310 310 310 309 308 307 306 307 307
257 257 259 262 262 261 262 264 267 271 274 275 277 279 282 285 287 289 291 293 295 298 300 300 301 302 302 302 303 304 305 307 307 308 309 309 309 309 310 310 310 308 307 307
257 258 259 261 261 261 262 263 265 269 272 275 277 279 282 285 286 288 291 294 296 298 301 302 301 301 301 301 301 303 304 305 305 307 309 310 310 310 311 311 312 312 311 310
258 258 258 259 262 261 262 264 267 269 271 275 277 280 282 283 285 287 290 293 295 298 299 301 302 302 302 302 303 304 306 306 307 307 309 311 311 311 311 311 311 312 312 311
Height
5877 5878 5879 5879 5880 5880 5881 5880 5880 5880 5880 5880 5880 5879 5878 5877 5876 5875 5873 5872 5870 5868 5867 5865 5863 5861 5859 5856 5854 5852 5849 5847 5845 5842 5840 5838 5836 5833 5831 5829 5827 5824 5822 5820
5872 5873 5874 5874 5875 5876 5876 5876 5876 5876 5876 5876 5875 5874 5873 5872 5871 5870 5869 5867 5866 5864 5863 5861 5859 5857 5855 5852 5850 5847 5845 5843 5840 5838 5836 5833 5831 5829 5826 5824 5821 5819 5816 5814
5867 5868 5868 5869 5871 5871 5871 5871 5871 5871 5871 5870 5870 5869 5868 5868 5867 5865 5864 5863 5861 5859 5858 5856 5854 5852 5850 5848 5845 5843 5840 5838 5835 5833 5830 5828 5826 5823 5821 5818 5816 5813 5810 5808
5862 5863 5863 5866 5865 5866 5866 5866 5866 5865 5865 5865 5865 5864 5863 5862 5861 5860 5858 5857 5856 5854 5852 5851 5849 5847 5845 5843 5840 5838 5835 5833 5830 5827 5825 5822 5820 5817 5815 5813 5810 5807 5804 5802
5856 5857 5858 5860 5860 5860 5860 5860 5860 5859 5859 5859 5859 5858 5858 5857 5856 5854 5853 5851 5850 5848 5847 5845 5843 5842 5840 5837 5835 5832 5830 5827 5825 5822 5819 5816 5814 5811 5809 5806 5803 5801 5798 5796
5850 5851 5852 5855 5855 5854 5855 5854 5854 5854 5854 5853 5853 5853 5852 5851 5850 5848 5846 5845 5844 5842 5841 5839 5838 5836 5834 5832 5829 5827 5824 5821 5818 5815 5813 5810 5808 5805 5802 5799 5797 5794 5791 5789
5844 5845 5846 5849 5848 5849 5850 5850 5849 5848 5848 5847 5847 5847 5846 5844 5843 5842 5840 5839 5838 5837 5835 5834 5832 5830 5827 5825 5823 5820 5817 5815 5812 5809 5807 5804 5801 5798 5795 5792 5790 5787 5785 5782
5838 5839 5842 5842 5842 5843 5843 5842 5842 5842 5842 5841 5841 5840 5839 5838 5837 5835 5834 5833 5832 5831 5829 5827 5825 5823 5821 5819 5817 5814 5811 5808 5805 5803 5800 5797 5794 5791 5788 5786 5783 5780 5778 5775
5833 5835 5835 5835 5835 5836 5836 5836 5836 5836 5836 5835 5834 5834 5833 5832 5830 5829 5828 5827 5826 5824 5823 5821 5819 5817 5815 5812 5810 5807 5804 5802 5799 5796 5793 5790 5787 5784 5782 5779 5776 5773 5770 5768
5826 5827 5827 5828 5828 5829 5829 5829 5829 5829 5829 5829 5828 5827 5826 5825 5824 5823 5822 5821 5820 5818 5816 5814 5812 5810 5808 5806 5803 5800 5797 5795 5792 5789 5786 5782 5780 5777 5774 5772 5769 5766 5763 5760
5818 5820 5820 5821 5821 5822 5822 5822 5822 5823 5822 5822 5821 5821 5820 5819 5818 5817 5816 5814 5813 5811 5809 5807 5805 5803 5801 5798 5796 5793 5790 5787 5784 5781 5778 5775 5772 5769 5766 5764 5760 5758 5755 5752
5811 5813 5813 5814 5814 5814 5815 5815 5815 5815 5815 5815 5814 5814 5813 5813 5812 5810 5809 5807 5806 5804 5802 5800 5798 5796 5794 5791 5788 5785 5782 5779 5776 5773 5770 5767 5764 5761 5758 5755 5752 5749 5746 5743
5804 5805 5805 5806 5807 5807 5807 5808 5808 5808 5808 5808 5808 5807 5807 5806 5805 5804 5802 5801 5799 5797 5795 5793 5791 5789 5786 5784 5781 5778 5775 5771 5768 5765 5762 5759 5756 5753 5750 5747 5743 5740 5737 5734
5796 5797 5799 5799 5799 5799 5800 5800 5801 5801 5801 5801 5801 5801 5800 5800 5798 5797 5796 5794 5792 5790 5788 5786 5784 5782 5779 5776 5773 5769 5766 5763 5760 5757 5754 5750 5747 5744 5741 5738 5735 5732 5729 5725
5790 5790 5791 5791 5792 5792 5792 5793 5794 5794 5794 5795 5794 5794 5793 5792 5791 5790 5789 5787 5786 5784 5782 5779 5777 5774 5771 5768 5764 5761 5758 5755 5751 5748 5745 5742 5739 5735 5732 5729 5726 5723 5720 5717
5783 5783 5783 5784 5784 5785 5786 5786 5787 5787 5788 5788 5787 5787 5786 5785 5784 5783 5782 5780 5779 5777 5774 5772 5769 5766 5763 5759 5756 5753 5750 5746 5743 5739 5736 5733 5730 5727 5723 5720 5717 5715 5712 5709
5775 5776 5776 5777 5777 5778 5779 5780 5780 5781 5781 5781 5780 5780 5779 5778 5777 5776 5775 5773 5772 5769 5767 5764 5761 5758 5755 5752 5748 5745 5742 5738 5734 5731 5727 5724 5721 5718 5715 5712 5709 5707 5704 5701
5768 5769 5769 5770 5771 5772 5772 5773 5773 5773 5774 5774 5773 5772 5772 5771 5770 5769 5768 5766 5764 5762 5760 5757 5754 5750 5747 5743 5740 5737 5734 5730 5727 5723 5720 5716 5713 5710 5706 5703 5701 5698 5696 5693
5761 5762 5762 5763 5764 5765 5765 5766 5766 5767 5767 5767 5766 5765 5765 5764 5763 5762 5760 5759 5757 5755 5752 5749 5746 5742 5739 5735 5732 5729 5726 5723 5720 5716 5712 5709 5705 5702 5699 5696 5693 5690 5688 5685
5754 5755 5755 5756 5757 5757 5758 5758 5759 5759 5759 5759 5759 5758 5758 5757 5756 5754 5753 5751 5749 5747 5744 5741 5738 5734 5731 5728 5725 5722 5719 5716 5712 5709 5705 5702 5698 5695 5692 5689 5686 5683 5680 5677
5747 5748 5748 5749 5750 5750 5751 5751 5752 5752 5752 5752 5751 5751 5750 5749 5748 5747 5745 5744 5742 5739 5736 5734 5731 5727 5724 5721 5718 5715 5712 5708 5705 5702 5698 5695 5691 5688 5685 5682 5679 5676 5672 5669
5740 5741 5741 5742 5743 5743 5744 5744 5745 5744 5744 5744 5744 5743 5743 5742 5740 5739 5737 5736 5734 5731 5728 5726 5723 5720 5717 5714 5711 5708 5705 5701 5698 5695 5691 5688 5684 5681 5678 5675 5671 5668 5665 5662
5733 5734 5734 5735 5736 5736 5737 5737 5737 5737 5737 5737 5736 5736 5735 5734 5733 5731 5730 5728 5726 5723 5721 5718 5716 5713 5710 5707 5704 5701 5698 5695 5691 5688 5684 5681 5678 5674 5671 5667 5664 5661 5658 5655
5725 5726 5727 5727 5728 5728 5729 5729 5730 5730 5730 5729 5729 5728 5727 5726 5725 5724 5722 5720 5718 5716 5714 5711 5708 5706 5703 5700 5697 5694 5691 5688 5684 5681 5678 5674 5671 5667 5664 5661 5657 5654 5650 5647
5718 5719 5719 5720 5720 5721 5721 5722 5722 5723 5723 5722 5722 5721 5720 5719 5718 5717 5715 5713 5711 5708 5706 5703 5701 5698 5695 5692 5690 5687 5684 5681 5678 5674 5671 5668 5664 5661 5657 5654 5650 5647 5643 5640
5710 5711 5712 5712 5713 5713 5713 5714 5715 5715 5715 5715 5714 5714 5713 5711 5710 5709 5707 5706 5703 5701 5699 5696 5693 5691 5688 5685 5682 5680 5677 5674 5670 5667 5664 5661 5658 5654 5651 5647 5644 5640 5637 5633
5703 5704 5704 5705 5705 5706 5706 5707 5707 5707 5707 5707 5707 5706 5705 5704 5703 5701 5700 5698 5696 5694 5692 5689 5686 5683 5681 5678 5676 5672 5669 5666 5663 5660 5657 5654 5651 5648 5644 5641 5637 5634 5630 5627